Tulsa, OK

3:46 PM CST on January 16, 2018 (GMT -0600)
Tulsa International

Weather History for KTUL - September, 2012

Change the Weather History Date:

Tuesday, September 18, 2012

  Actual Average Record
Temperature  
Mean Temperature 65 °F 72 °F  
Max Temperature 77 °F 83 °F 100 °F (1952)
Min Temperature 52 °F 61 °F 42 °F (1981)
Degree Days  
Heating Degree Days 0 1  
Month to date heating degree days 5 4  
Since 1 July heating degree days 5 4  
Cooling Degree Days 0 8  
Month to date cooling degree days 239 194  
Year to date cooling degree days 2509 1895  
Growing Degree Days 15 (Base 50)    
Moisture  
Dew Point 50 °F    
Average Humidity 61    
Maximum Humidity 89    
Minimum Humidity 33    
Precipitation  
Precipitation 0.18 in 0.15 in 2.39 in (1971)
Month to date precipitation 0.87 2.56  
Year to date precipitation 23.12 30.04  
Sea Level Pressure  
Sea Level Pressure 30.04 in    
Wind  
Wind Speed 7 mph (NNE)    
Max Wind Speed 18 mph    
Max Gust Speed 24 mph    
Visibility 10 miles    
Events Rain , Thunderstorm    
T = Trace of Precipitation, MM = Missing Value Source: NWS Daily Summary

Daily Weather History Graph

Daily Weather History Graph

Search for Another Location

Airport or City:

Trip Planner

Search our weather history database for the weather conditions in past years. The results will help you decide how hot, cold, wet, or windy it might be!

Date:

Astronomy

Sep. 18, 2012 Rise Set
Actual Time 7:08 AM CDT 7:25 PM CDT
Civil Twilight 6:43 AM CDT 7:51 PM CDT
Nautical Twilight 6:12 AM CDT 8:21 PM CDT
Astronomical Twilight 5:42 AM CDT 8:51 PM CDT
Moon 10:02 AM CDT (9/18) 8:57 PM CDT (9/18)
Length of Visible Light 13h 08m
Length of Day
12h 16m
Waxing Crescent, 9% of the Moon is Illuminated
Sep 18
Waxing Crescent
Sep 22
First Quarter
Sep 29
Full
Oct 8
Last Quarter
Oct 15
New

Hourly Weather History & Observations

Time (CDT) Temp. Dew Point Humidity Pressure Visibility Wind Dir Wind Speed Gust Speed Precip Events Conditions
12:53 AM 64.9 °F 57.0 °F 75% 29.94 in 10.0 mi North 15.0 mph 23.0 mph N/A   Scattered Clouds
1:53 AM 64.0 °F 55.0 °F 73% 29.98 in 10.0 mi NNE 13.8 mph - N/A   Overcast
2:26 AM 64.4 °F 55.4 °F 73% 29.98 in 10.0 mi North 16.1 mph 21.9 mph N/A Thunderstorm Thunderstorm
2:41 AM 60.8 °F 55.4 °F 82% 30.00 in 2.0 mi North 11.5 mph - 0.08 in Rain , Thunderstorm Heavy Thunderstorms and Rain
2:48 AM 60.8 °F 57.2 °F 88% 30.00 in 7.0 mi North 13.8 mph - 0.18 in Rain , Thunderstorm Light Thunderstorms and Rain
2:53 AM 61.0 °F 55.9 °F 83% 29.99 in 10.0 mi North 13.8 mph - 0.18 in Rain , Thunderstorm Light Thunderstorms and Rain
3:24 AM 60.8 °F 55.4 °F 82% 30.01 in 10.0 mi North 11.5 mph - 0.00 in   Overcast
3:53 AM 60.1 °F 53.1 °F 78% 29.99 in 10.0 mi North 10.4 mph - 0.00 in   Overcast
4:53 AM 60.1 °F 48.9 °F 67% 30.01 in 10.0 mi North 12.7 mph - N/A   Overcast
5:53 AM 57.9 °F 48.9 °F 72% 30.03 in 10.0 mi North 5.8 mph - N/A   Partly Cloudy
6:53 AM 53.1 °F 48.9 °F 86% 30.04 in 10.0 mi NNW 4.6 mph - N/A   Partly Cloudy
7:53 AM 54.0 °F 50.0 °F 86% 30.06 in 10.0 mi North 5.8 mph - N/A   Clear
8:53 AM 57.9 °F 51.1 °F 78% 30.08 in 10.0 mi North 6.9 mph - N/A   Clear
9:53 AM 62.1 °F 51.1 °F 67% 30.11 in 10.0 mi NNW 6.9 mph - N/A   Clear
10:53 AM 66.0 °F 48.9 °F 54% 30.12 in 10.0 mi North 6.9 mph - N/A   Clear
11:53 AM 70.0 °F 45.0 °F 41% 30.12 in 10.0 mi NE 12.7 mph - N/A   Clear
12:53 PM 72.0 °F 46.0 °F 40% 30.11 in 10.0 mi NNE 9.2 mph - N/A   Clear
1:53 PM 73.9 °F 46.0 °F 37% 30.09 in 10.0 mi NE 9.2 mph - N/A   Clear
2:53 PM 75.0 °F 45.0 °F 34% 30.07 in 10.0 mi NW 5.8 mph - N/A   Clear
3:53 PM 75.9 °F 45.0 °F 33% 30.05 in 10.0 mi Calm Calm - N/A   Clear
4:53 PM 75.9 °F 44.1 °F 32% 30.04 in 10.0 mi ESE 6.9 mph - N/A   Clear
5:53 PM 75.9 °F 44.1 °F 32% 30.03 in 10.0 mi NNW 3.5 mph - N/A   Clear
6:53 PM 71.1 °F 48.0 °F 44% 30.04 in 10.0 mi ESE 5.8 mph - N/A   Clear
7:53 PM 66.9 °F 48.9 °F 52% 30.04 in 10.0 mi SE 5.8 mph - N/A   Clear
8:53 PM 64.9 °F 48.9 °F 56% 30.05 in 10.0 mi SE 4.6 mph - N/A   Clear
9:53 PM 62.1 °F 48.9 °F 62% 30.06 in 10.0 mi SE 4.6 mph - N/A   Clear
10:53 PM 61.0 °F 48.9 °F 64% 30.07 in 10.0 mi SE 4.6 mph - N/A   Clear
11:53 PM 63.0 °F 48.0 °F 58% 30.05 in 10.0 mi SSE 8.1 mph - N/A   Clear